Year,Month,Day,Hour,Minute,Value (Times are PST for temperature in C)
2015,06,28,00,00,23.20
2015,06,28,00,01,23.20
2015,06,28,00,02,23.20
2015,06,28,00,03,23.20
2015,06,28,00,04,23.20
2015,06,28,00,05,23.10
2015,06,28,00,06,23.10
2015,06,28,00,07,23.20
2015,06,28,00,08,23.20
2015,06,28,00,09,23.10
2015,06,28,00,10,23.10
2015,06,28,00,11,23.10
2015,06,28,00,12,23.10
2015,06,28,00,13,23.10
2015,06,28,00,14,23.10
2015,06,28,00,15,23.10
2015,06,28,00,16,23.10
2015,06,28,00,17,23.10
2015,06,28,00,18,23.10
2015,06,28,00,19,23.10
2015,06,28,00,20,23.10
2015,06,28,00,21,23.10
2015,06,28,00,22,23.00
2015,06,28,00,23,23.00
2015,06,28,00,24,22.90
2015,06,28,00,25,22.90
2015,06,28,00,26,22.80
2015,06,28,00,27,22.80
2015,06,28,00,28,22.80
2015,06,28,00,29,22.80
2015,06,28,00,30,22.80
2015,06,28,00,31,22.80
2015,06,28,00,32,22.80
2015,06,28,00,33,22.70
2015,06,28,00,34,22.70
2015,06,28,00,35,22.60
2015,06,28,00,36,22.60
2015,06,28,00,37,22.60
2015,06,28,00,38,22.60
2015,06,28,00,39,22.50
2015,06,28,00,40,22.50
2015,06,28,00,41,22.50
2015,06,28,00,42,22.50
2015,06,28,00,43,22.40
2015,06,28,00,44,22.40
2015,06,28,00,45,22.40
2015,06,28,00,46,22.40
2015,06,28,00,47,22.40
2015,06,28,00,48,22.30
2015,06,28,00,49,22.30
2015,06,28,00,50,22.30
2015,06,28,00,51,22.30
2015,06,28,00,52,22.40
2015,06,28,00,53,22.30
2015,06,28,00,54,22.30
2015,06,28,00,55,22.30
2015,06,28,00,56,22.30
2015,06,28,00,57,22.30
2015,06,28,00,58,22.30
2015,06,28,00,59,22.30
2015,06,28,01,00,22.30
2015,06,28,01,01,22.30
2015,06,28,01,02,22.30
2015,06,28,01,03,22.30
2015,06,28,01,04,22.30
2015,06,28,01,05,22.40
2015,06,28,01,06,22.40
2015,06,28,01,07,22.40
2015,06,28,01,08,22.30
2015,06,28,01,09,22.30
2015,06,28,01,10,22.30
2015,06,28,01,11,22.30
2015,06,28,01,12,22.20
2015,06,28,01,13,22.20
2015,06,28,01,14,22.20
2015,06,28,01,15,22.20
2015,06,28,01,16,22.20
2015,06,28,01,17,22.10
2015,06,28,01,18,22.10
2015,06,28,01,19,22.10
2015,06,28,01,20,22.10
2015,06,28,01,21,22.10
2015,06,28,01,22,22.00
2015,06,28,01,23,22.00
2015,06,28,01,24,22.00
2015,06,28,01,25,22.10
2015,06,28,01,26,22.10
2015,06,28,01,27,22.10
2015,06,28,01,28,22.20
2015,06,28,01,29,22.20
2015,06,28,01,30,22.10
2015,06,28,01,31,22.10
2015,06,28,01,32,22.10
2015,06,28,01,33,22.10
2015,06,28,01,34,22.10
2015,06,28,01,35,22.10
2015,06,28,01,36,22.10
2015,06,28,01,37,22.00
2015,06,28,01,38,22.00
2015,06,28,01,39,22.00
2015,06,28,01,40,22.00
2015,06,28,01,41,21.90
2015,06,28,01,42,21.90
2015,06,28,01,43,22.00
2015,06,28,01,44,22.00
2015,06,28,01,45,22.00
2015,06,28,01,46,22.00
2015,06,28,01,47,21.90
2015,06,28,01,48,21.90
2015,06,28,01,49,21.80
2015,06,28,01,50,21.80
2015,06,28,01,51,21.90
2015,06,28,01,52,21.90
2015,06,28,01,53,21.90
2015,06,28,01,54,21.90
2015,06,28,01,55,21.90
2015,06,28,01,56,21.90
2015,06,28,01,57,21.90
2015,06,28,01,58,21.90
2015,06,28,01,59,21.90
2015,06,28,02,00,22.00
2015,06,28,02,01,21.90
2015,06,28,02,02,21.90
2015,06,28,02,03,21.90
2015,06,28,02,04,21.90
2015,06,28,02,05,21.90
2015,06,28,02,06,21.80
2015,06,28,02,07,21.80
2015,06,28,02,08,21.70
2015,06,28,02,09,21.70
2015,06,28,02,10,21.80
2015,06,28,02,11,21.80
2015,06,28,02,12,21.80
2015,06,28,02,13,21.80
2015,06,28,02,14,21.80
2015,06,28,02,15,21.80
2015,06,28,02,16,21.90
2015,06,28,02,17,21.90
2015,06,28,02,18,21.80
2015,06,28,02,19,21.80
2015,06,28,02,20,21.80
2015,06,28,02,21,21.70
2015,06,28,02,22,21.70
2015,06,28,02,23,21.70
2015,06,28,02,24,21.70
2015,06,28,02,25,21.70
2015,06,28,02,26,21.70
2015,06,28,02,27,21.70
2015,06,28,02,28,21.80
2015,06,28,02,29,21.80
2015,06,28,02,30,21.90
2015,06,28,02,31,21.80
2015,06,28,02,32,21.80
2015,06,28,02,33,21.80
2015,06,28,02,34,21.80
2015,06,28,02,35,21.80
2015,06,28,02,36,21.80
2015,06,28,02,37,21.80
2015,06,28,02,38,21.80
2015,06,28,02,39,21.80
2015,06,28,02,40,21.80
2015,06,28,02,41,21.80
2015,06,28,02,42,21.80
2015,06,28,02,43,21.70
2015,06,28,02,44,21.70
2015,06,28,02,45,21.70
2015,06,28,02,46,21.60
2015,06,28,02,47,21.60
2015,06,28,02,48,21.60
2015,06,28,02,49,21.60
2015,06,28,02,50,21.60
2015,06,28,02,51,21.60
2015,06,28,02,52,21.60
2015,06,28,02,53,21.70
2015,06,28,02,54,21.70
2015,06,28,02,55,21.80
2015,06,28,02,56,21.80
2015,06,28,02,57,21.80
2015,06,28,02,58,21.80
2015,06,28,02,59,21.80
2015,06,28,03,00,21.70
2015,06,28,03,01,21.60
2015,06,28,03,02,21.60
2015,06,28,03,03,21.60
2015,06,28,03,04,21.60
2015,06,28,03,05,21.60
2015,06,28,03,06,21.60
2015,06,28,03,07,21.60
2015,06,28,03,08,21.60
2015,06,28,03,09,21.60
2015,06,28,03,10,21.70
2015,06,28,03,11,21.70
2015,06,28,03,12,21.70
2015,06,28,03,13,21.70
2015,06,28,03,14,21.70
2015,06,28,03,15,21.60
2015,06,28,03,16,21.60
2015,06,28,03,17,21.60
2015,06,28,03,18,21.70
2015,06,28,03,19,21.70
2015,06,28,03,20,21.60
2015,06,28,03,21,21.60
2015,06,28,03,22,21.60
2015,06,28,03,23,21.60
2015,06,28,03,24,21.50
2015,06,28,03,25,21.50
2015,06,28,03,26,21.50
2015,06,28,03,27,21.40
2015,06,28,03,28,21.50
2015,06,28,03,29,21.50
2015,06,28,03,30,21.50
2015,06,28,03,31,21.40
2015,06,28,03,32,21.50
2015,06,28,03,33,21.50
2015,06,28,03,34,21.40
2015,06,28,03,35,21.50
2015,06,28,03,36,21.50
2015,06,28,03,37,21.50
2015,06,28,03,38,21.60
2015,06,28,03,39,21.60
2015,06,28,03,40,21.60
2015,06,28,03,41,21.60
2015,06,28,03,42,21.50
2015,06,28,03,43,21.50
2015,06,28,03,44,21.50
2015,06,28,03,45,21.50
2015,06,28,03,46,21.40
2015,06,28,03,47,21.40
2015,06,28,03,48,21.30
2015,06,28,03,49,21.30
2015,06,28,03,50,21.30
2015,06,28,03,51,21.30
2015,06,28,03,52,21.30
2015,06,28,03,53,21.40
2015,06,28,03,54,21.40
2015,06,28,03,55,21.40
2015,06,28,03,56,21.40
2015,06,28,03,57,21.40
2015,06,28,03,58,21.40
2015,06,28,03,59,21.40
2015,06,28,04,00,21.40
2015,06,28,04,01,21.40
2015,06,28,04,02,21.50
2015,06,28,04,03,21.60
2015,06,28,04,04,21.60
2015,06,28,04,05,21.60
2015,06,28,04,06,21.50
2015,06,28,04,07,21.40
2015,06,28,04,08,21.20
2015,06,28,04,09,21.10
2015,06,28,04,10,21.10
2015,06,28,04,11,21.00
2015,06,28,04,12,21.00
2015,06,28,04,13,20.90
2015,06,28,04,14,20.80
2015,06,28,04,15,20.70
2015,06,28,04,16,20.60
2015,06,28,04,17,20.50
2015,06,28,04,18,20.40
2015,06,28,04,19,20.40
2015,06,28,04,20,20.40
2015,06,28,04,21,20.50
2015,06,28,04,22,20.60
2015,06,28,04,23,20.70
2015,06,28,04,24,20.80
2015,06,28,04,25,20.90
2015,06,28,04,26,21.00
2015,06,28,04,27,21.10
2015,06,28,04,28,21.20
2015,06,28,04,29,21.20
2015,06,28,04,30,21.20
2015,06,28,04,31,21.30
2015,06,28,04,32,21.30
2015,06,28,04,33,21.30
2015,06,28,04,34,21.30
2015,06,28,04,35,21.30
2015,06,28,04,36,21.30
2015,06,28,04,37,21.20
2015,06,28,04,38,21.10
2015,06,28,04,39,21.10
2015,06,28,04,40,21.10
2015,06,28,04,41,21.10
2015,06,28,04,42,21.10
2015,06,28,04,43,21.10
2015,06,28,04,44,21.20
2015,06,28,04,45,21.20
2015,06,28,04,46,21.20
2015,06,28,04,47,21.20
2015,06,28,04,48,21.30
2015,06,28,04,49,21.30
2015,06,28,04,50,21.30
2015,06,28,04,51,21.30
2015,06,28,04,52,21.20
2015,06,28,04,53,21.30
2015,06,28,04,54,21.20
2015,06,28,04,55,21.20
2015,06,28,04,56,21.20
2015,06,28,04,57,21.20
2015,06,28,04,58,21.10
2015,06,28,04,59,21.10
2015,06,28,05,00,21.10
2015,06,28,05,01,21.00
2015,06,28,05,02,20.90
2015,06,28,05,03,20.70
2015,06,28,05,04,20.60
2015,06,28,05,05,20.40
2015,06,28,05,06,20.20
2015,06,28,05,07,20.10
2015,06,28,05,08,19.90
2015,06,28,05,09,19.80
2015,06,28,05,10,19.70
2015,06,28,05,11,19.60
2015,06,28,05,12,19.50
2015,06,28,05,13,19.50
2015,06,28,05,14,19.50
2015,06,28,05,15,19.70
2015,06,28,05,16,19.80
2015,06,28,05,17,19.80
2015,06,28,05,18,19.80
2015,06,28,05,19,19.80
2015,06,28,05,20,19.80
2015,06,28,05,21,19.80
2015,06,28,05,22,20.00
2015,06,28,05,23,20.10
2015,06,28,05,24,20.30
2015,06,28,05,25,20.40
2015,06,28,05,26,20.60
2015,06,28,05,27,20.70
2015,06,28,05,28,20.80
2015,06,28,05,29,20.90
2015,06,28,05,30,20.90
2015,06,28,05,31,20.90
2015,06,28,05,32,20.90
2015,06,28,05,33,20.80
2015,06,28,05,34,20.70
2015,06,28,05,35,20.70
2015,06,28,05,36,20.60
2015,06,28,05,37,20.70
2015,06,28,05,38,20.70
2015,06,28,05,39,20.70
2015,06,28,05,40,20.80
2015,06,28,05,41,20.80
2015,06,28,05,42,20.90
2015,06,28,05,43,21.00
2015,06,28,05,44,21.10
2015,06,28,05,45,21.10
2015,06,28,05,46,21.10
2015,06,28,05,47,21.00
2015,06,28,05,48,20.90
2015,06,28,05,49,20.80
2015,06,28,05,50,20.70
2015,06,28,05,51,20.50
2015,06,28,05,52,20.40
2015,06,28,05,53,20.30
2015,06,28,05,54,20.30
2015,06,28,05,55,20.30
2015,06,28,05,56,20.40
2015,06,28,05,57,20.50
2015,06,28,05,58,20.70
2015,06,28,05,59,20.80
2015,06,28,06,00,20.90
2015,06,28,06,01,21.00
2015,06,28,06,02,21.10
2015,06,28,06,03,21.10
2015,06,28,06,04,21.10
2015,06,28,06,05,21.10
2015,06,28,06,06,21.10
2015,06,28,06,07,21.00
2015,06,28,06,08,21.10
2015,06,28,06,09,21.10
2015,06,28,06,10,21.10
2015,06,28,06,11,21.10
2015,06,28,06,12,21.20
2015,06,28,06,13,21.30
2015,06,28,06,14,21.40
2015,06,28,06,15,21.50
2015,06,28,06,16,21.60
2015,06,28,06,17,21.60
2015,06,28,06,18,21.70
2015,06,28,06,19,21.70
2015,06,28,06,20,21.60
2015,06,28,06,21,21.60
2015,06,28,06,22,21.60
2015,06,28,06,23,21.50
2015,06,28,06,24,21.50
2015,06,28,06,25,21.40
2015,06,28,06,26,21.30
2015,06,28,06,27,21.30
2015,06,28,06,28,21.20
2015,06,28,06,29,21.20
2015,06,28,06,30,21.20
2015,06,28,06,31,21.20
2015,06,28,06,32,21.20
2015,06,28,06,33,21.20
2015,06,28,06,34,21.30
2015,06,28,06,35,21.30
2015,06,28,06,36,21.30
2015,06,28,06,37,21.30
2015,06,28,06,38,21.30
2015,06,28,06,39,21.30
2015,06,28,06,40,21.30
2015,06,28,06,41,21.30
2015,06,28,06,42,21.40
2015,06,28,06,43,21.50
2015,06,28,06,44,21.60
2015,06,28,06,45,21.70
2015,06,28,06,46,21.60
2015,06,28,06,47,21.50
2015,06,28,06,48,21.50
2015,06,28,06,49,21.40
2015,06,28,06,50,21.30
2015,06,28,06,51,21.20
2015,06,28,06,52,21.10
2015,06,28,06,53,21.00
2015,06,28,06,54,20.90
2015,06,28,06,55,20.80
2015,06,28,06,56,20.80
2015,06,28,06,57,20.80
2015,06,28,06,58,20.80
2015,06,28,06,59,21.00
2015,06,28,07,00,21.10
2015,06,28,07,01,21.10
2015,06,28,07,02,21.20
2015,06,28,07,03,21.20
2015,06,28,07,04,21.30
2015,06,28,07,05,21.30
2015,06,28,07,06,21.30
2015,06,28,07,07,21.30
2015,06,28,07,08,21.30
2015,06,28,07,09,21.30
2015,06,28,07,10,21.30
2015,06,28,07,11,21.30
2015,06,28,07,12,21.30
2015,06,28,07,13,21.30
2015,06,28,07,14,21.30
2015,06,28,07,15,21.20
2015,06,28,07,16,21.20
2015,06,28,07,17,21.30
2015,06,28,07,18,21.30
2015,06,28,07,19,21.20
2015,06,28,07,20,21.20
2015,06,28,07,21,21.20
2015,06,28,07,22,21.20
2015,06,28,07,23,21.20
2015,06,28,07,24,21.30
2015,06,28,07,25,21.30
2015,06,28,07,26,21.30
2015,06,28,07,27,21.40
2015,06,28,07,28,21.40
2015,06,28,07,29,21.40
2015,06,28,07,30,21.50
2015,06,28,07,31,21.60
2015,06,28,07,32,21.50
2015,06,28,07,33,21.40
2015,06,28,07,34,21.30
2015,06,28,07,35,21.20
2015,06,28,07,36,21.10
2015,06,28,07,37,21.00
2015,06,28,07,38,20.90
2015,06,28,07,39,20.80
2015,06,28,07,40,20.70
2015,06,28,07,41,20.60
2015,06,28,07,42,20.60
2015,06,28,07,43,20.50
2015,06,28,07,44,20.50
2015,06,28,07,45,20.40
2015,06,28,07,46,20.30
2015,06,28,07,47,20.10
2015,06,28,07,48,20.00
2015,06,28,07,49,19.90
2015,06,28,07,50,19.80
2015,06,28,07,51,19.60
2015,06,28,07,52,19.50
2015,06,28,07,53,19.50
2015,06,28,07,54,19.40
2015,06,28,07,55,19.30
2015,06,28,07,56,19.20
2015,06,28,07,57,19.10
2015,06,28,07,58,19.00
2015,06,28,07,59,18.90
2015,06,28,08,00,18.80
2015,06,28,08,01,18.70
2015,06,28,08,02,18.60
2015,06,28,08,03,18.50
2015,06,28,08,04,18.40
2015,06,28,08,05,18.30
2015,06,28,08,06,18.30
2015,06,28,08,07,18.20
2015,06,28,08,08,18.20
2015,06,28,08,09,18.10
2015,06,28,08,10,18.10
2015,06,28,08,11,18.10
2015,06,28,08,12,18.00
2015,06,28,08,13,18.00
2015,06,28,08,14,17.90
2015,06,28,08,15,17.90
2015,06,28,08,16,17.90
2015,06,28,08,17,17.90
2015,06,28,08,18,17.90
2015,06,28,08,19,17.90
2015,06,28,08,20,17.90
2015,06,28,08,21,17.90
2015,06,28,08,22,17.90
2015,06,28,08,23,17.90
2015,06,28,08,24,17.90
2015,06,28,08,25,17.90
2015,06,28,08,26,17.90
2015,06,28,08,27,18.00
2015,06,28,08,28,18.00
2015,06,28,08,29,18.10
2015,06,28,08,30,18.40
2015,06,28,08,31,18.70
2015,06,28,08,32,19.10
2015,06,28,08,33,19.30
2015,06,28,08,34,19.50
2015,06,28,08,35,19.70
2015,06,28,08,36,20.00
2015,06,28,08,37,20.40
2015,06,28,08,38,20.80
2015,06,28,08,39,21.10
2015,06,28,08,40,21.40
2015,06,28,08,41,21.60
2015,06,28,08,42,21.80
2015,06,28,08,43,21.90
2015,06,28,08,44,21.90
2015,06,28,08,45,21.90
2015,06,28,08,46,21.90
2015,06,28,08,47,21.90
2015,06,28,08,48,21.90
2015,06,28,08,49,21.90
2015,06,28,08,50,21.90
2015,06,28,08,51,21.90
2015,06,28,08,52,22.00
2015,06,28,08,53,22.00
2015,06,28,08,54,22.10
2015,06,28,08,55,22.20
2015,06,28,08,56,22.20
2015,06,28,08,57,22.30
2015,06,28,08,58,22.40
2015,06,28,08,59,22.50
2015,06,28,09,00,22.50
2015,06,28,09,01,22.50
2015,06,28,09,02,22.50
2015,06,28,09,03,22.50
2015,06,28,09,04,22.40
2015,06,28,09,05,22.30
2015,06,28,09,06,22.20
2015,06,28,09,07,22.10
2015,06,28,09,08,22.00
2015,06,28,09,09,21.90
2015,06,28,09,10,21.80
2015,06,28,09,11,21.80
2015,06,28,09,12,21.80
2015,06,28,09,13,21.70
2015,06,28,09,14,21.70
2015,06,28,09,15,21.60
2015,06,28,09,16,21.60
2015,06,28,09,17,21.60
2015,06,28,09,18,21.60
2015,06,28,09,19,21.60
2015,06,28,09,20,21.70
2015,06,28,09,21,21.80
2015,06,28,09,22,21.80
2015,06,28,09,23,21.90
2015,06,28,09,24,22.00
2015,06,28,09,25,22.00
2015,06,28,09,26,22.10
2015,06,28,09,27,22.10
2015,06,28,09,28,22.20
2015,06,28,09,29,22.20
2015,06,28,09,30,22.20
2015,06,28,09,31,22.20
2015,06,28,09,32,22.20
2015,06,28,09,33,22.20
2015,06,28,09,34,22.20
2015,06,28,09,35,22.30
2015,06,28,09,36,22.30
2015,06,28,09,37,22.30
2015,06,28,09,38,22.20
2015,06,28,09,39,22.20
2015,06,28,09,40,22.20
2015,06,28,09,41,22.10
2015,06,28,09,42,22.10
2015,06,28,09,43,22.10
2015,06,28,09,44,22.10
2015,06,28,09,45,22.10
2015,06,28,09,46,22.10
2015,06,28,09,47,22.10
2015,06,28,09,48,22.10
2015,06,28,09,49,22.20
2015,06,28,09,50,22.20
2015,06,28,09,51,22.30
2015,06,28,09,52,22.40
2015,06,28,09,53,22.50
2015,06,28,09,54,22.60
2015,06,28,09,55,22.70
2015,06,28,09,56,22.70
2015,06,28,09,57,22.80
2015,06,28,09,58,22.80
2015,06,28,09,59,22.90
2015,06,28,10,00,22.90
2015,06,28,10,01,23.00
2015,06,28,10,02,23.10
2015,06,28,10,03,23.20
2015,06,28,10,04,23.30
2015,06,28,10,05,23.40
2015,06,28,10,06,23.40
2015,06,28,10,07,23.40
2015,06,28,10,08,23.50
2015,06,28,10,09,23.60
2015,06,28,10,10,23.60
2015,06,28,10,11,23.60
2015,06,28,10,12,23.60
2015,06,28,10,13,23.70
2015,06,28,10,14,23.70
2015,06,28,10,15,23.80
2015,06,28,10,16,23.80
2015,06,28,10,17,23.80
2015,06,28,10,18,23.80
2015,06,28,10,19,23.90
2015,06,28,10,20,23.90
2015,06,28,10,21,24.10
2015,06,28,10,22,24.10
2015,06,28,10,23,24.20
2015,06,28,10,24,24.30
2015,06,28,10,25,24.40
2015,06,28,10,26,24.60
2015,06,28,10,27,24.70
2015,06,28,10,28,24.80
2015,06,28,10,29,24.90
2015,06,28,10,30,24.90
2015,06,28,10,31,25.00
2015,06,28,10,32,25.10
2015,06,28,10,33,25.10
2015,06,28,10,34,25.20
2015,06,28,10,35,25.30
2015,06,28,10,36,25.40
2015,06,28,10,37,25.40
2015,06,28,10,38,25.40
2015,06,28,10,39,25.50
2015,06,28,10,40,25.50
2015,06,28,10,41,25.50
2015,06,28,10,42,25.50
2015,06,28,10,43,25.50
2015,06,28,10,44,25.50
2015,06,28,10,45,25.60
2015,06,28,10,46,25.70
2015,06,28,10,47,25.70
2015,06,28,10,48,25.80
2015,06,28,10,49,25.80
2015,06,28,10,50,25.80
2015,06,28,10,51,25.90
2015,06,28,10,52,25.90
2015,06,28,10,53,25.90
2015,06,28,10,54,25.90
2015,06,28,10,55,25.90
2015,06,28,10,56,25.90
2015,06,28,10,57,26.00
2015,06,28,10,58,26.10
2015,06,28,10,59,26.10
2015,06,28,11,00,26.20
2015,06,28,11,01,26.20
2015,06,28,11,02,26.30
2015,06,28,11,03,26.40
2015,06,28,11,04,26.50
2015,06,28,11,05,26.60
2015,06,28,11,06,26.70
2015,06,28,11,07,26.80
2015,06,28,11,08,26.80
2015,06,28,11,09,26.90
2015,06,28,11,10,27.00
2015,06,28,11,11,27.10
2015,06,28,11,12,27.20
2015,06,28,11,13,27.30
2015,06,28,11,14,27.40
2015,06,28,11,15,27.40
2015,06,28,11,16,27.40
2015,06,28,11,17,27.50
2015,06,28,11,18,27.60
2015,06,28,11,19,27.70
2015,06,28,11,20,27.80
2015,06,28,11,21,27.90
2015,06,28,11,22,27.90
2015,06,28,11,23,28.00
2015,06,28,11,24,28.10
2015,06,28,11,25,28.20
2015,06,28,11,26,28.40
2015,06,28,11,27,28.50
2015,06,28,11,28,28.60
2015,06,28,11,29,28.70
2015,06,28,11,30,28.80
2015,06,28,11,31,28.90
2015,06,28,11,32,29.00
2015,06,28,11,33,29.10
2015,06,28,11,34,29.10
2015,06,28,11,35,29.20
2015,06,28,11,36,29.20
2015,06,28,11,37,29.30
2015,06,28,11,38,29.30
2015,06,28,11,39,29.40
2015,06,28,11,40,29.50
2015,06,28,11,41,29.60
2015,06,28,11,42,29.60
2015,06,28,11,43,29.70
2015,06,28,11,44,29.70
2015,06,28,11,45,29.80
2015,06,28,11,46,29.80
2015,06,28,11,47,29.90
2015,06,28,11,48,29.90
2015,06,28,11,49,29.90
2015,06,28,11,50,30.00
2015,06,28,11,51,30.10
2015,06,28,11,52,30.10
2015,06,28,11,53,30.30
2015,06,28,11,54,30.40
2015,06,28,11,55,30.50
2015,06,28,11,56,30.60
2015,06,28,11,57,30.70
2015,06,28,11,58,30.80
2015,06,28,11,59,30.90
2015,06,28,12,00,31.00
2015,06,28,12,01,31.00
2015,06,28,12,02,31.10
2015,06,28,12,03,31.20
2015,06,28,12,04,31.30
2015,06,28,12,05,31.30
2015,06,28,12,06,31.40
2015,06,28,12,07,31.40
2015,06,28,12,08,31.40
2015,06,28,12,09,31.40
2015,06,28,12,10,31.50
2015,06,28,12,11,31.50
2015,06,28,12,12,31.60
2015,06,28,12,13,31.60
2015,06,28,12,14,31.70
2015,06,28,12,15,31.70
2015,06,28,12,16,31.70
2015,06,28,12,17,31.70
2015,06,28,12,18,31.80
2015,06,28,12,19,31.80
2015,06,28,12,20,31.80
2015,06,28,12,21,31.80
2015,06,28,12,22,31.90
2015,06,28,12,23,31.90
2015,06,28,12,24,31.90
2015,06,28,12,25,31.90
2015,06,28,12,26,31.80
2015,06,28,12,27,31.80
2015,06,28,12,28,31.70
2015,06,28,12,29,31.70
2015,06,28,12,30,31.70
2015,06,28,12,31,31.80
2015,06,28,12,32,31.80
2015,06,28,12,33,31.80
2015,06,28,12,34,31.90
2015,06,28,12,35,31.80
2015,06,28,12,36,31.80
2015,06,28,12,37,31.80
2015,06,28,12,38,31.80
2015,06,28,12,39,31.70
2015,06,28,12,40,31.60
2015,06,28,12,41,31.60
2015,06,28,12,42,31.60
2015,06,28,12,43,31.70
2015,06,28,12,44,31.70
2015,06,28,12,45,31.80
2015,06,28,12,46,31.80
2015,06,28,12,47,31.80
2015,06,28,12,48,31.90
2015,06,28,12,49,31.90
2015,06,28,12,50,31.90
2015,06,28,12,51,31.90
2015,06,28,12,52,32.00
2015,06,28,12,53,32.00
2015,06,28,12,54,32.10
2015,06,28,12,55,32.10
2015,06,28,12,56,32.20
2015,06,28,12,57,32.20
2015,06,28,12,58,32.30
2015,06,28,12,59,32.30
2015,06,28,13,00,32.30
2015,06,28,13,01,32.40
2015,06,28,13,02,32.30
2015,06,28,13,03,32.20
2015,06,28,13,04,31.90
2015,06,28,13,05,31.50
2015,06,28,13,06,31.20
2015,06,28,13,07,31.00
2015,06,28,13,08,30.70
2015,06,28,13,09,30.60
2015,06,28,13,10,30.40
2015,06,28,13,11,30.30
2015,06,28,13,12,30.30
2015,06,28,13,13,30.30
2015,06,28,13,14,30.30
2015,06,28,13,15,30.30
2015,06,28,13,16,30.40
2015,06,28,13,17,30.60
2015,06,28,13,18,30.70
2015,06,28,13,19,30.80
2015,06,28,13,20,31.00
2015,06,28,13,21,31.10
2015,06,28,13,22,31.30
2015,06,28,13,23,31.40
2015,06,28,13,24,31.50
2015,06,28,13,25,31.60
2015,06,28,13,26,31.60
2015,06,28,13,27,31.60
2015,06,28,13,28,31.40
2015,06,28,13,29,31.30
2015,06,28,13,30,31.20
2015,06,28,13,31,31.10
2015,06,28,13,32,31.00
2015,06,28,13,33,30.90
2015,06,28,13,34,30.80
2015,06,28,13,35,30.80
2015,06,28,13,36,30.60
2015,06,28,13,37,30.50
2015,06,28,13,38,30.40
2015,06,28,13,39,30.20
2015,06,28,13,40,30.20
2015,06,28,13,41,30.10
2015,06,28,13,42,30.00
2015,06,28,13,43,30.00
2015,06,28,13,44,29.90
2015,06,28,13,45,29.80
2015,06,28,13,46,29.70
2015,06,28,13,47,29.60
2015,06,28,13,48,29.40
2015,06,28,13,49,29.20
2015,06,28,13,50,29.10
2015,06,28,13,51,28.90
2015,06,28,13,52,28.80
2015,06,28,13,53,28.60
2015,06,28,13,54,28.50
2015,06,28,13,55,28.50
2015,06,28,13,56,28.50
2015,06,28,13,57,28.50
2015,06,28,13,58,28.60
2015,06,28,13,59,28.60
2015,06,28,14,00,28.60
2015,06,28,14,01,28.60
2015,06,28,14,02,28.60
2015,06,28,14,03,28.60
2015,06,28,14,04,28.70
2015,06,28,14,05,28.80
2015,06,28,14,06,28.80
2015,06,28,14,07,28.90
2015,06,28,14,08,29.00
2015,06,28,14,09,29.20
2015,06,28,14,10,29.30
2015,06,28,14,11,29.40
2015,06,28,14,12,29.40
2015,06,28,14,13,29.50
2015,06,28,14,14,29.50
2015,06,28,14,15,29.50
2015,06,28,14,16,29.50
2015,06,28,14,17,29.60
2015,06,28,14,18,29.60
2015,06,28,14,19,29.70
2015,06,28,14,20,29.70
2015,06,28,14,21,29.70
2015,06,28,14,22,29.60
2015,06,28,14,23,29.60
2015,06,28,14,24,29.50
2015,06,28,14,25,29.50
2015,06,28,14,26,29.40
2015,06,28,14,27,29.30
2015,06,28,14,28,29.30
2015,06,28,14,29,29.20
2015,06,28,14,30,29.10
2015,06,28,14,31,29.00
2015,06,28,14,32,28.80
2015,06,28,14,33,28.70
2015,06,28,14,34,28.50
2015,06,28,14,35,28.40
2015,06,28,14,36,28.20
2015,06,28,14,37,28.20
2015,06,28,14,38,28.10
2015,06,28,14,39,28.10
2015,06,28,14,40,28.10
2015,06,28,14,41,28.10
2015,06,28,14,42,28.00
2015,06,28,14,43,28.00
2015,06,28,14,44,28.00
2015,06,28,14,45,28.10
2015,06,28,14,46,28.20
2015,06,28,14,47,28.20
2015,06,28,14,48,28.20
2015,06,28,14,49,28.20
2015,06,28,14,50,28.20
2015,06,28,14,51,28.20
2015,06,28,14,52,28.20
2015,06,28,14,53,28.20
2015,06,28,14,54,28.10
2015,06,28,14,55,28.00
2015,06,28,14,56,27.90
2015,06,28,14,57,27.80
2015,06,28,14,58,27.80
2015,06,28,14,59,27.70
2015,06,28,15,00,27.70
2015,06,28,15,01,27.70
2015,06,28,15,02,27.70
2015,06,28,15,03,27.70
2015,06,28,15,04,27.70
2015,06,28,15,05,27.70
2015,06,28,15,06,27.70
2015,06,28,15,07,27.60
2015,06,28,15,08,27.40
2015,06,28,15,09,27.30
2015,06,28,15,10,27.10
2015,06,28,15,11,27.10
2015,06,28,15,12,27.10
2015,06,28,15,13,27.00
2015,06,28,15,14,26.90
2015,06,28,15,15,26.80
2015,06,28,15,16,26.70
2015,06,28,15,17,26.60
2015,06,28,15,18,26.60
2015,06,28,15,19,26.60
2015,06,28,15,20,26.60
2015,06,28,15,21,26.50
2015,06,28,15,22,26.50
2015,06,28,15,23,26.50
2015,06,28,15,24,26.60
2015,06,28,15,25,26.70
2015,06,28,15,26,26.70
2015,06,28,15,27,26.70
2015,06,28,15,28,26.70
2015,06,28,15,29,26.60
2015,06,28,15,30,26.60
2015,06,28,15,31,26.60
2015,06,28,15,32,26.60
2015,06,28,15,33,26.60
2015,06,28,15,34,26.60
2015,06,28,15,35,26.70
2015,06,28,15,36,26.80
2015,06,28,15,37,26.90
2015,06,28,15,38,27.00
2015,06,28,15,39,27.10
2015,06,28,15,40,27.20
2015,06,28,15,41,27.30
2015,06,28,15,42,27.30
2015,06,28,15,43,27.40
2015,06,28,15,44,27.50
2015,06,28,15,45,27.60
2015,06,28,15,46,27.70
2015,06,28,15,47,27.70
2015,06,28,15,48,27.80
2015,06,28,15,49,27.90
2015,06,28,15,50,28.00
2015,06,28,15,51,28.10
2015,06,28,15,52,28.20
2015,06,28,15,53,28.30
2015,06,28,15,54,28.40
2015,06,28,15,55,28.50
2015,06,28,15,56,28.60
2015,06,28,15,57,28.60
2015,06,28,15,58,28.70
2015,06,28,15,59,28.70
2015,06,28,16,00,28.70
2015,06,28,16,01,28.80
2015,06,28,16,02,28.80
2015,06,28,16,03,28.80
2015,06,28,16,04,28.90
2015,06,28,16,05,28.90
2015,06,28,16,06,28.90
2015,06,28,16,07,28.90
2015,06,28,16,08,28.80
2015,06,28,16,09,28.80
2015,06,28,16,10,28.80
2015,06,28,16,11,28.80
2015,06,28,16,12,28.80
2015,06,28,16,13,28.70
2015,06,28,16,14,28.70
2015,06,28,16,15,28.70
2015,06,28,16,16,28.70
2015,06,28,16,17,28.70
2015,06,28,16,18,28.70
2015,06,28,16,19,28.70
2015,06,28,16,20,28.70
2015,06,28,16,21,28.70
2015,06,28,16,22,28.60
2015,06,28,16,23,28.50
2015,06,28,16,24,28.40
2015,06,28,16,25,28.30
2015,06,28,16,26,28.20
2015,06,28,16,27,28.10
2015,06,28,16,28,28.00
2015,06,28,16,29,27.90
2015,06,28,16,30,27.80
2015,06,28,16,31,27.70
2015,06,28,16,32,27.60
2015,06,28,16,33,27.50
2015,06,28,16,34,27.40
2015,06,28,16,35,27.30
2015,06,28,16,36,27.30
2015,06,28,16,37,27.30
2015,06,28,16,38,27.30
2015,06,28,16,39,27.20
2015,06,28,16,40,27.20
2015,06,28,16,41,27.20
2015,06,28,16,42,27.30
2015,06,28,16,43,27.30
2015,06,28,16,44,27.40
2015,06,28,16,45,27.50
2015,06,28,16,46,27.50
2015,06,28,16,47,27.50
2015,06,28,16,48,27.50
2015,06,28,16,49,27.50
2015,06,28,16,50,27.50
2015,06,28,16,51,27.60
2015,06,28,16,52,27.60
2015,06,28,16,53,27.60
2015,06,28,16,54,27.60
2015,06,28,16,55,27.50
2015,06,28,16,56,27.40
2015,06,28,16,57,27.30
2015,06,28,16,58,27.20
2015,06,28,16,59,27.20
2015,06,28,17,00,27.10
2015,06,28,17,01,27.10
2015,06,28,17,02,27.10
2015,06,28,17,03,27.00
2015,06,28,17,04,26.90
2015,06,28,17,05,26.80
2015,06,28,17,06,26.70
2015,06,28,17,07,26.60
2015,06,28,17,08,26.60
2015,06,28,17,09,26.50
2015,06,28,17,10,26.50
2015,06,28,17,11,26.40
2015,06,28,17,12,26.40
2015,06,28,17,13,26.40
2015,06,28,17,14,26.40
2015,06,28,17,15,26.40
2015,06,28,17,16,26.40
2015,06,28,17,17,26.50
2015,06,28,17,18,26.50
2015,06,28,17,19,26.60